GSAT0201 (GALILEO 5)

Last updated on Jan. 18, 2021, 6:28 a.m. UTC

1 40128U 14050A   21017.38509981 -.00000114  00000-0  00000-0 0  9996
2 40128  50.5264 352.8426 1652296 106.3540 272.4189  1.85519350 41644
UTC
Height (km)
Latitude
Longitude
Inclination
Orbital Period
UTC large
Height (km)
Speed (km/s)
/
Latitude / Longitude
Inclination (degrees)
Orbital Period (minutes)
Azimuth
Elevation
Range (km)
Doppler Factor
iOS Compass Heading
iOS Angle

Next 30 passes for location: Hong Kong

Rise time Rise Azimuth (degrees) Set time Set Azimuth (degrees) Duration Max altitude (degrees)

No matching passes for this satellites